This demonstration page uses our WeatherBlox Daily Observations layout. Learn more.

Left ArrowRight Arrow

Hourly Observations for February 20, 2018

Temp ( °F °C ) Dew Point ( °F °C ) Humidity (%) Winds ( mph kmh ) Pressure ( in mb ) Visibility ( mi km ) Precip ( " mm )
12:56 am 00:56 Cloudy with Light Snow 11 -11.7 7 -13.9 84 84 NNW 17 28 30.00 1016 9 14 0.00 0.03
1:15 am 01:15 Cloudy with Light Snow 10 -12 7 -14 85 85 N 15 24 30.06 1018 9 14 0.00 0.00
1:56 am 01:56 Cloudy with Light Snow 11 -11.7 7 -13.9 84 84 NNW 16 26 30.01 1016 9 14 0.00 0.03
2:56 am 02:56 Cloudy with Light Snow 11 -11.7 6 -14.4 81 81 N 16 26 30.01 1016 9 14 0.00 0.03
3:56 am 03:56 Cloudy with Light Snow 11 -11.7 6 -14.4 81 81 NNW 15 24 30.04 1017 9 14 0.00 0.03
4:11 am 04:11 Cloudy with Light Snow 10 -12 5 -15 79 79 NNW 18 30 30.12 1020 9 14 0.00 0.00
4:36 am 04:36 Cloudy with Light Snow 10 -12 5 -15 79 79 NNW 17 28 30.18 1022 9 14 0.00 0.03
4:49 am 04:49 Cloudy 10 -12 3 -16 72 72 NNW 16 26 30.18 1022 10 16 0.00 0.00
4:56 am 04:56 Cloudy 10 -12.2 4 -15.6 76 76 NNW 17 28 30.06 1018 10 16 0.00 0.03
5:56 am 05:56 Mostly Cloudy with Light Snow 8 -13.3 3 -16.1 80 80 NNW 16 26 30.10 1019 10 16 0.00 0.03
6:25 am 06:25 Mostly Clear 7 -14 0 -18 72 72 NNW 18 30 30.21 1023 10 16 0.00 0.00
6:56 am 06:56 Mostly Cloudy 7 -13.9 0 -17.8 73 73 N 18 30 30.13 1020 10 16 0.00 0.03
7:25 am 07:25 Cloudy 7 -14 1 -17 78 78 NNW 13 20 30.33 1027 10 16 0.00 0.00
7:46 am 07:46 Mostly Cloudy 7 -14 0 -18 72 72 NNW 17 28 30.27 1025 9 14 0.00 0.03
7:56 am 07:56 Cloudy 7 -13.9 0 -17.8 73 73 NNW 20 31 30.18 1022 10 16 0.00 0.03
8:56 am 08:56 Partly Cloudy 8 -13.3 1 -17.2 73 73 NNW 16 26 30.23 1024 10 16 0.00 0.03
9:56 am 09:56 Sunny 8 -13.3 -1 -18.3 66 66 NNW 22 35 30.24 1024 10 16 0.00 0.00
10:56 am 10:56 Mostly Sunny 12 -11.1 2 -16.7 64 64 NNW 21 33 30.24 1024 10 16 0.00 0.00
11:56 am 11:56 Sunny 14 -10 3 -16.1 61 61 NNW 21 33 30.22 1023 10 16 0.00 0.00
12:56 pm 12:56 Mostly Sunny 16 -8.9 5 -15 62 62 N 18 30 30.25 1024 10 16 0.00 0.00
1:56 pm 13:56 Partly Cloudy 18 -7.8 6 -14.4 59 59 NNW 16 26 30.28 1025 10 16 0.00 0.00
2:56 pm 14:56 Mostly Sunny 17 -8.3 6 -14.4 62 62 N 15 24 30.30 1026 10 16 0.00 0.00
3:56 pm 15:56 Mostly Sunny 19 -7.2 5 -15 54 54 N 16 26 30.32 1027 10 16 0.00 0.00
5:56 pm 17:56 Sunny 14 -10 4 -15.6 64 64 NNW 14 22 30.40 1029 10 16 0.00 0.00
6:56 pm 18:56 Clear 11 -11.7 3 -16.1 70 70 NNW 10 17 30.43 1031 10 16 0.00 0.00
7:56 pm 19:56 Clear 10 -12.2 3 -16.1 73 73 NNW 12 19 30.46 1032 10 16 0.00 0.00
8:56 pm 20:56 Clear 9 -12.8 2 -16.7 73 73 NNW 9 15 30.48 1032 10 16 0.00 0.00
9:56 pm 21:56 Clear 8 -13.3 2 -16.7 76 76 NNW 9 15 30.52 1033 10 16 0.00 0.00
10:56 pm 22:56 Clear 6 -14.4 1 -17.2 79 79 NNW 8 13 30.53 1034 10 16 0.00 0.00
11:56 pm 23:56 Clear 6 -14.4 1 -17.2 79 79 NNW 8 13 30.56 1035 10 16 0.00 0.00

Powered by AerisWeather